Home   Weather   Görlitz   Past weeks

Flag for Germany Past Weather in Görlitz, Saxony, Germany — Yesterday and Last 2 Weeks

Now
22 °F

Heavy mixture of precip. Overcast.


Feels Like: 22 °F
Forecast: 29 / 36 °F
Wind: 2 mph from Southeast

Location: Liberec

Current Time: Dec 6, 2016 at 2:07:13 am

Latest Report: Dec 6, 2016 at 1:00 am


Visibility: 1 mi

Pressure: 30.42 "Hg

Humidity: 96%

Dew Point: 21 °F

Location of GörlitzLocation

Past Weather in Görlitz — Graph

°F

Görlitz Temperature Yesterday

Maximum temperature yesterday: 31 °F (at 12:00 pm)
Minimum temperature yesterday: 22 °F (at 11:00 pm)
Average temperature yesterday: 25 °F

High & Low Weather Summary for the Past Weeks

 TemperatureHumidityPressure
High53 °F (Nov 21, 2:00 pm)99% (Nov 25, 9:00 pm)30.59 "Hg (Nov 25, 9:00 pm)
Low17 °F (Dec 4, 6:00 am)41% (Nov 30, 12:00 pm)29.75 "Hg (Dec 2, 4:00 am)
Average35 °F85%30.21 "Hg
* Reported Nov 21 1:00 am — Dec 6 1:00 am, Görlitz, Weather by CustomWeather, © 2016

Note: Actual official high and low records may vary slightly from our data, if they occured in-between our weather recording intervals... More about our weather records

Advertising

Görlitz Weather History for the Previous 24 Hours

Scroll right to see more
 ConditionsComfort  
Time TempWeatherWind HumidityBarometerVisibility
1:00 am
Tue, Dec 6
22 °FHeavy mixture of precip. Overcast.2 mph96%30.42 "Hg1 mi
12:00 am22 °FHeavy mixture of precip. Overcast.2 mph96%30.42 "Hg2 mi
11:00 pm
Mon, Dec 5
22 °FHeavy mixture of precip. Overcast.3 mph96%30.42 "Hg1 mi
10:00 pm22 °FLight mixture of precip. Overcast.3 mph96%30.41 "Hg1 mi
9:00 pm23 °FLight snow. Low clouds.5 mph96%30.42 "Hg1 mi
8:00 pm24 °FLight snow. Low clouds.5 mph96%30.41 "Hg1 mi
7:00 pm24 °FLight snow. Low clouds.3 mph96%30.41 "Hg1 mi
6:00 pm24 °FSnow. Overcast.5 mph95%30.41 "Hg0 mi
5:00 pm24 °FSnow. Overcast.3 mph96%30.41 "Hg0 mi
4:00 pm24 °FLight snow. Low clouds.6 mph94%30.41 "Hg1 mi
3:00 pm24 °FFog.6 mph86%30.41 "Hg3 mi
2:00 pm25 °FPassing clouds.5 mph74%30.42 "Hg11 mi
1:00 pm29 °FSunny.6 mph63%30.41 "Hg12 mi
12:00 pm31 °FSunny.3 mph58%30.42 "Hg16 mi
11:00 am31 °FSunny.5 mph57%30.43 "Hg16 mi
10:00 am30 °FSunny.5 mph60%30.44 "Hg14 mi
9:00 am26 °FPassing clouds.3 mph66%30.46 "Hg16 mi
8:00 am25 °FPassing clouds.3 mph62%30.46 "Hg22 mi
7:00 am24 °FPassing clouds.2 mph64%30.46 "Hg22 mi
6:00 am23 °FCold.3 mph70%30.47 "Hg11 mi
5:00 am23 °FCold.3 mph74%30.48 "Hg9 mi
4:00 am24 °FCold.3 mph71%30.48 "Hg11 mi
3:00 am24 °FCold.3 mph76%30.49 "Hg9 mi
2:00 am22 °FCold.3 mph84%30.50 "Hg6 mi
Weather by CustomWeather, © 2016

See weather overviewHow to use our weather pages